User: anonymous   Login
Location: Unspecified
(0.0000°N, 0.0000°E)
Time: 21:17:29
(UTC+00:00)
Language:

Freja - Orbit

View from above orbital plane
View from above orbital plane
View from above satellite
View from above satellite

Ground track
Ground track

The orbit data is extracted from the following two-line orbital elements,

1 22161U 92064A   17141.39918566 -.00000035 +00000-0 +32072-4 0  9991
2 22161 062.9952 133.5803 0749276 315.8983 038.4548 13.30268348192879
Epoch (UTC): 21 May 2017 09:34:49
Eccentricity: 0.0749276
inclination: 62.9952°
perigee height: 582 km
apogee height: 1709 km
right ascension of ascending node: 133.5803°
argument of perigee: 315.8983°
revolutions per day: 13.30268348
mean anomaly at epoch: 38.4548°
orbit number at epoch: 19287

The dashed part of the orbit path shows where the satellite is in the earth's shadow,  

DLR